TimeAKST,TemperatureF,Dew PointF,Humidity,Sea Level PressureIn,VisibilityMPH,Wind Direction,Wind SpeedMPH,Gust SpeedMPH,PrecipitationIn,Events,Conditions,WindDirDegrees,DateUTC
12:01 AM,-29.0,-34.1,77,29.69,10.0,WSW,6.9,-,N/A,,Clear,250,2012-12-14 09:01:00
1:01 AM,-29.9,-9999,N/A,29.71,10.0,SW,8.1,-,N/A,,Clear,230,2012-12-14 10:01:00
2:01 AM,-29.0,-35.0,73,29.71,10.0,WSW,6.9,-,N/A,,Clear,250,2012-12-14 11:01:00
3:01 AM,-31.0,-9999,N/A,29.70,10.0,SW,4.6,-,N/A,,Clear,220,2012-12-14 12:01:00
4:01 AM,-27.9,-34.1,73,29.71,10.0,SW,6.9,-,N/A,,Clear,230,2012-12-14 13:01:00
5:01 AM,-29.9,-9999,N/A,29.71,10.0,Calm,Calm,-,N/A,,Clear,0,2012-12-14 14:01:00
6:01 AM,-29.0,-35.0,73,29.71,10.0,SW,4.6,-,N/A,,Clear,230,2012-12-14 15:01:00
7:01 AM,-32.1,-9999,N/A,29.71,10.0,SW,4.6,-,N/A,,Clear,230,2012-12-14 16:01:00
8:01 AM,-29.9,-9999,N/A,29.72,10.0,SSW,3.5,-,N/A,,Clear,210,2012-12-14 17:01:00
9:01 AM,-31.0,-9999,N/A,29.72,10.0,SSW,4.6,-,N/A,,Clear,210,2012-12-14 18:01:00
10:01 AM,-31.0,-9999,N/A,29.73,10.0,SSW,4.6,-,N/A,,Clear,200,2012-12-14 19:01:00
11:01 AM,-29.9,-9999,N/A,29.73,9.0,WSW,3.5,-,N/A,,Clear,240,2012-12-14 20:01:00
12:01 PM,-32.1,-9999,N/A,29.74,4.0,Calm,Calm,-,N/A,,Haze,0,2012-12-14 21:01:00
1:01 PM,-33.0,-9999,N/A,29.74,10.0,SSW,4.6,-,N/A,,Clear,200,2012-12-14 22:01:00
2:01 PM,-33.0,-9999,N/A,29.74,10.0,Calm,Calm,-,N/A,,Clear,0,2012-12-14 23:01:00
3:01 PM,-32.1,-9999,N/A,29.75,9.0,SSW,3.5,-,N/A,,Clear,200,2012-12-15 00:01:00
4:01 PM,-33.0,-9999,N/A,29.75,10.0,SSW,3.5,-,N/A,,Clear,210,2012-12-15 01:01:00
5:01 PM,-32.1,-9999,N/A,29.76,10.0,Calm,Calm,-,N/A,,Clear,0,2012-12-15 02:01:00
6:01 PM,-32.1,-9999,N/A,29.76,10.0,Calm,Calm,-,N/A,,Clear,0,2012-12-15 03:01:00
7:01 PM,-32.1,-9999,N/A,29.77,10.0,Calm,Calm,-,N/A,,Clear,0,2012-12-15 04:01:00
8:01 PM,-32.1,-9999,N/A,29.77,10.0,Calm,Calm,-,N/A,,Clear,0,2012-12-15 05:01:00
9:01 PM,-33.0,-9999,N/A,29.78,7.0,Calm,Calm,-,N/A,,Clear,0,2012-12-15 06:01:00
10:01 PM,-33.0,-9999,N/A,29.78,10.0,Calm,Calm,-,N/A,,Clear,0,2012-12-15 07:01:00
11:01 PM,-32.1,-9999,N/A,29.78,9.0,Calm,Calm,-,0.00,,Clear,0,2012-12-15 08:01:00